Location: Le Rouget
(44.8538°N, 2.2328°E)
Time: 20:04:07
(UTC+00:00)

Cosmos 2263 Rocket - Pass Details

Date: 15 May 2026
Orbit: 824 x 845 km, 71.0° (Epoch: 7 June)

Event Time Altitude Azimuth Distance (km) Brightness Sun altitude
Exits shadow 23:03:51 11° 90° (E) 2,343 4.4 -25.3°
Drops below altitude 10° 23:05:03 10° 77° (ENE) 2,436 4.6 -25.4°
Sets 23:09:20 0° 46° (NE) 3,372 5.8 -25.5°
